User: anonymous   Login
Location: Muenchen
(48.1800°N, 11.5800°E)
Time: 14:15:58
(UTC+02:00)
Language:

Cosmos 2233 Rocket - Orbit

View from above orbital plane
View from above orbital plane
View from above satellite
View from above satellite

Ground track
Ground track

The orbit data is extracted from the following two-line orbital elements,

1 22488U 93008B   16148.13357897 -.00000010  00000-0 -24911-4 0  9991
2 22488  82.9425   5.7227 0024404 225.0709 249.3779 13.77702389171106
Epoch (UTC): 27 May 2016 03:12:21
Eccentricity: 0.0024404
inclination: 82.9425°
perigee height: 954 km
apogee height: 990 km
right ascension of ascending node: 5.7227°
argument of perigee: 225.0709°
revolutions per day: 13.77702389
mean anomaly at epoch: 249.3779°
orbit number at epoch: 17110

The dashed part of the orbit path shows where the satellite is in the earth's shadow,  

DLR